Location: Ermatingen
(47.6706°N, 9.0857°E)
Time: 02:47:56
(UTC+00:00)

Cosmos 2151 Rocket - Pass Details

Date: 18 September 2020
Orbit: 618 x 642 km, 82.5° (Epoch: 24 October)

Event Time Altitude Azimuth Distance (km) Brightness Sun altitude
Rises 18:44:05 0° 170° (S) 2,900 6.7 -13.3°
Reaches altitude 10° 18:46:22 10° 163° (SSE) 2,002 5.8 -13.6°
Maximum altitude 18:50:34 43° 93° (E) 896 3.9 -14.3°
Drops below altitude 10° 18:54:49 10° 22° (NNE) 2,032 6.2 -15.0°
Sets 18:57:09 0° 16° (NNE) 2,950 7.1 -15.3°
